PAWI

Details ICAO PAWI (AIN)
Name WAINWRIGHT
Region USA (Alaska)
Timezone America/Anchorage (UTC-8.0)
Plans Departing 7
Arriving 8
Stats Elevation 41 ft / 12 m (AMSL)
Location 70.637998° -159.994757°
Runways 1
Magnetic Variation 12.746° E
Sunrise Unknown / Unknown
Sunset Unknown / Unknown
Advertisement - Login to hide

Runways

ID Width Length Bearing (true) Bearing (mag) Surface Threshold Offset Overrun Length
05 89 ft / 27 m 4,477 ft / 1,365 m 67.44° 54.69° Gravel 0 ft / 0 m 249 ft / 76 m
23 89 ft / 27 m 4,477 ft / 1,365 m 247.48° 234.73° Gravel 0 ft / 0 m 249 ft / 76 m

Map

Weather


0- 5 10 15 20 25 30 35+ Temperature / ° C

Clouds and Precipitation
Forecast for 2018-05-21 18:00 UTC. Updated an hour ago

Ground ~20,000 ft ~40,000 ft Winds

METAR

PAWI 211753Z AUTO 07016KT 10SM OVC009 M05/M07 A2986 RMK AO2 SLP113 T10501072 11044 21056 55001 TSNO

TAF

Not found

Frequencies

Recorded 132.25 MHz ASOS
Unicom 122.80 MHz CTAF
Warning: Do not use this data for real-world aviation or navigation. No guarantee of current accuracy is given.